Location: Ffald-y-Brenin
(52.0833°N, 4.0000°W)
Time: 18:41:00
(UTC+00:00)

Cosmos 2360 Rocket - Pass Details

Date: 18 February 2020
Orbit: 836 x 843 km, 71.0° (Epoch: 27 March)

Event Time Altitude Azimuth Distance (km) Brightness Sun altitude
Exits shadow 05:52:42 - 321° (NW) 2,675 4.4 -15.0°
Reaches altitude 10° 05:54:07 10° 334° (NNW) 2,467 4.4 -14.8°
Maximum altitude 05:55:54 11° 352° (N) 2,368 4.4 -14.5°
Drops below altitude 10° 05:57:40 10° 11° (N) 2,466 4.7 -14.2°
Sets 06:02:12 0° 44° (NE) 3,399 6.0 -13.5°
